Waarnemingen

Advertentie
Mijn weer
Vinga, Zweden (2516): temperatuur & dauwpunt: 21.04.2018 10:00:00 - 27.04.2018 10:00:00 (CEST)Vinga, Zweden (2516): windsnelheid & windstoten: 21.04.2018 10:00:00 - 27.04.2018 10:00:00 (CEST)Vinga, Zweden (2516): windrichting: 21.04.2018 10:00:00 - 27.04.2018 10:00:00 (CEST)Vinga, Zweden (2516): luchtdruk: 21.04.2018 10:00:00 - 27.04.2018 10:00:00 (CEST)Vinga, Zweden (2516): zicht: 21.04.2018 10:00:00 - 27.04.2018 10:00:00 (CEST)Vinga, Zweden (2516): neerslag: 21.04.2018 10:00:00 - 27.04.2018 10:00:00 (CEST)
Datum & Tijd tt [°C] td [°C] ff [km/u] ff [kn] fx [km/u] fx [kn] dd ppp [hPa] vv [km] rr [mm]
27.04.2018 10:00:00 - - - - - - - - - -
27.04.2018 09:00:00 7,1 6,2 24 13 32 17 ZW 1007,7 4,9 0,2
27.04.2018 08:00:00 7,1 5,4 18 10 31 17 WZW 1007,6 10 0,0
27.04.2018 07:00:00 6,9 4,7 24 13 39 21 WZW 1007,0 16 0,0
27.04.2018 06:00:00 6,8 4,8 28 15 41 22 WZW 1006,8 15 0,0
27.04.2018 05:00:00 6,6 4,4 27 14 34 18 WZW 1006,5 13 0,0
27.04.2018 04:00:00 6,7 4,7 27 14 39 21 WZW 1006,5 15 0,0
27.04.2018 03:00:00 6,9 5,1 28 15 36 19 WZW 1006,4 14 0,0
27.04.2018 02:00:00 6,9 4,2 29 15 40 22 WZW 1006,6 25 0,0
27.04.2018 01:00:00 7,3 4,9 29 15 39 21 WZW 1006,6 12 0,0
27.04.2018 00:00:00 7,3 5,4 26 14 34 18 ZW 1006,3 14 0,0
26.04.2018 23:00:00 7,4 5,4 28 15 34 19 ZW 1006,3 13 0,0
26.04.2018 22:00:00 7,5 5,3 22 12 32 17 WZW 1006,3 16 0,0
26.04.2018 21:00:00 7,2 4,8 21 11 32 18 W 1006,2 19 0,0
26.04.2018 20:00:00 7,5 4,8 19 10 31 17 W 1006,0 20 0,0
26.04.2018 19:00:00 8,0 5,8 14 7 25 13 W 1005,8 18 0,0
26.04.2018 18:00:00 9,0 5,9 13 7 17 9 WNW 1005,4 35 0,0
26.04.2018 17:00:00 7,5 5,5 11 6 39 21 ZZW 1005,1 23 0,1
26.04.2018 16:00:00 7,1 5,7 21 11 32 17 Z 1005,2 18 0,6
26.04.2018 15:00:00 7,0 5,5 26 14 38 20 ZW 1005,1 7 0,5
26.04.2018 14:00:00 7,7 6,3 23 12 26 14 ZZW 1004,7 11 0,2
26.04.2018 13:00:00 7,7 6,2 19 11 23 12 ZZW 1004,6 14 0,0
26.04.2018 12:00:00 7,7 5,7 20 11 29 16 ZW 1004,6 10 0,0
26.04.2018 11:00:00 8,0 5,5 23 12 33 18 ZW 1004,3 19 0,0
26.04.2018 10:00:00 7,0 4,3 23 12 36 20 WZW 1004,1 19 0,0
26.04.2018 09:00:00 6,2 4,4 26 14 35 19 WZW 1003,8 16 0,0
26.04.2018 08:00:00 6,1 4,6 29 16 39 21 WZW 1003,4 14 0,0
26.04.2018 07:00:00 6,1 4,3 26 14 39 21 W 1003,0 20 0,0
26.04.2018 06:00:00 5,8 4,3 28 15 42 23 W 1002,6 15 0,0
26.04.2018 05:00:00 6,0 4,5 29 15 47 26 W 1002,5 16 0,0
26.04.2018 04:00:00 6,1 4,1 32 18 46 25 W 1002,3 15 0,0
26.04.2018 03:00:00 6,2 4,7 31 17 45 25 W 1002,0 23 0,0
26.04.2018 02:00:00 6,4 4,7 32 17 49 26 W 1002,2 15 0,0
26.04.2018 01:00:00 6,3 4,5 33 18 48 26 W 1002,1 12 0,0
26.04.2018 00:00:00 6,5 4,8 37 20 48 26 WZW 1001,8 12 0,0
25.04.2018 23:00:00 6,6 4,6 36 20 49 26 WZW 1001,8 13 0,0
25.04.2018 22:00:00 7,0 4,8 33 18 44 24 WZW 1001,8 15 0,0
25.04.2018 21:00:00 7,2 5,2 33 18 42 23 WZW 1001,6 15 0,0
25.04.2018 20:00:00 7,0 5,0 32 17 46 25 W 1001,6 16 0,0
25.04.2018 19:00:00 9,1 4,7 17 9 30 16 W 1001,1 24 0,0
25.04.2018 18:00:00 9,4 5,8 9 5 27 15 W 1001,3 26 0,0
25.04.2018 17:00:00 9,0 5,2 23 13 32 18 W 1001,0 23 0,0
25.04.2018 16:00:00 9,7 5,3 21 11 29 16 W 1000,9 33 0,0
25.04.2018 15:00:00 9,0 5,2 19 11 29 16 W 1000,8 23 0,0
25.04.2018 14:00:00 8,9 4,9 18 10 25 14 WZW 1000,6 26 0,0
25.04.2018 13:00:00 8,0 4,4 14 8 25 13 W 1000,3 24 0,0
25.04.2018 12:00:00 7,4 4,9 19 10 23 12 WZW 1000,2 14 0,0
25.04.2018 11:00:00 7,1 4,6 14 7 18 10 WZW 1000,3 15 0,0
25.04.2018 10:00:00 7,0 4,5 10 6 23 12 WZW 1000,2 15 0,0
25.04.2018 09:00:00 6,8 4,5 15 8 29 16 W 1000,0 16 0,0
25.04.2018 08:00:00 6,7 4,9 20 11 31 17 WZW 1000,1 14 0,0
25.04.2018 07:00:00 6,5 4,7 21 11 36 19 W 1000,1 13 0,0
25.04.2018 06:00:00 6,4 5,0 29 16 40 21 WZW 1000,3 10 0,0
25.04.2018 05:00:00 6,4 5,0 34 18 43 23 WZW 1000,6 10 0,0
25.04.2018 04:00:00 6,6 5,2 33 18 45 25 WZW 1001,4 10 0,0
25.04.2018 03:00:00 6,6 4,9 32 17 46 25 WZW 1002,1 11 0,0
25.04.2018 02:00:00 6,5 5,0 34 19 46 25 WZW 1002,3 10 0,0
25.04.2018 01:00:00 6,6 5,1 34 18 52 28 WZW 1002,7 9 0,0
25.04.2018 00:00:00 6,7 5,2 39 21 52 28 WZW 1002,7 10 0,0
24.04.2018 23:00:00 7,0 5,5 36 19 53 28 WZW 1002,7 10 0,0
24.04.2018 22:00:00 6,9 5,2 33 18 63 34 W 1002,3 9 0,0
24.04.2018 21:00:00 7,2 5,2 44 24 63 34 W 1001,8 9 0,0
24.04.2018 20:00:00 7,6 5,7 37 20 58 31 W 1001,4 9 0,0
24.04.2018 19:00:00 8,0 5,6 39 21 66 35 W 1000,8 11 0,0
24.04.2018 18:00:00 8,0 6,1 46 25 68 37 W 1000,5 11 0,0
24.04.2018 17:00:00 7,9 6,4 43 23 59 32 WZW 1000,1 9 0,0
24.04.2018 16:00:00 7,7 6,9 42 23 53 29 WZW 1000,4 6 0,0
24.04.2018 15:00:00 7,9 7,0 37 20 55 30 ZW 1000,5 7 0,0
24.04.2018 14:00:00 7,9 7,5 33 18 49 26 WZW 1000,5 2,8 0,5
24.04.2018 13:00:00 8,7 8,1 37 20 44 24 ZW 1000,3 6 0,4
24.04.2018 12:00:00 7,5 7,4 34 18 41 22 ZZW 1000,6 2,2 0,3
24.04.2018 11:00:00 7,2 7,1 33 18 40 22 Z 1001,1 2,0 0,0
24.04.2018 10:00:00 6,9 6,6 28 15 37 20 Z 1002,2 4,9 0,2
24.04.2018 09:00:00 7,1 6,5 30 16 38 20 ZZW 1003,1 10 0,0
24.04.2018 08:00:00 7,0 6,4 33 18 45 24 ZW 1003,5 6 0,5
24.04.2018 07:00:00 7,0 6,6 39 21 49 26 ZW 1003,9 4,3 0,7
24.04.2018 06:00:00 7,2 6,8 29 16 41 22 ZW 1004,4 4,7 0,3
24.04.2018 05:00:00 7,3 6,6 30 16 39 21 ZW 1004,7 8 0,0
24.04.2018 04:00:00 7,2 6,1 31 17 42 23 ZW 1004,9 10 0,0
24.04.2018 03:00:00 7,0 5,9 31 17 42 23 ZW 1005,2 11 0,0
24.04.2018 02:00:00 7,1 5,7 30 16 45 24 WZW 1005,5 11 0,0
24.04.2018 01:00:00 7,0 5,9 35 19 48 26 WZW 1005,8 9 0,0
24.04.2018 00:00:00 7,3 6,2 34 18 47 26 WZW 1005,6 12 0,0
23.04.2018 23:00:00 8,1 6,4 34 18 44 24 WZW 1005,3 11 0,0
23.04.2018 22:00:00 8,1 6,4 29 16 41 22 WZW 1005,3 11 0,0
23.04.2018 21:00:00 8,5 6,5 25 14 30 16 WZW 1005,3 19 0,0
23.04.2018 20:00:00 8,8 6,4 27 14 41 22 WZW 1005,1 21 0,0
23.04.2018 19:00:00 9,3 5,8 24 13 33 18 W 1005,0 39 0,0
23.04.2018 18:00:00 9,9 7,0 14 7 22 12 W 1005,2 31 0,0
23.04.2018 17:00:00 8,7 6,7 12 6 18 10 ZZW 1005,1 24 0,0
23.04.2018 16:00:00 8,6 6,7 10 5 18 10 ZZW 1005,1 14 0,0
23.04.2018 15:00:00 10,2 7,3 14 7 22 12 ZW 1005,2 20 0,0
23.04.2018 14:00:00 9,9 7,0 16 9 26 14 W 1004,8 20 0,0
23.04.2018 13:00:00 9,5 7,4 20 11 29 15 WZW 1004,3 10 0,0
23.04.2018 12:00:00 8,6 7,5 22 12 36 19 WZW 1003,7 4,6 0,0
23.04.2018 11:00:00 7,8 7,0 27 15 48 26 ZZW 1003,1 7 0,0
23.04.2018 10:00:00 7,5 6,3 41 22 50 27 Z 1002,6 9 0,0
23.04.2018 09:00:00 7,4 6,0 39 21 51 28 ZZO 1002,6 12 2,3
23.04.2018 08:00:00 7,2 6,0 28 15 36 19 Z 1003,6 6 2,0
23.04.2018 07:00:00 8,1 4,7 24 13 41 22 ZO 1003,5 29 0,0
23.04.2018 06:00:00 8,4 4,6 33 18 41 22 ZO 1004,1 36 0,0
23.04.2018 05:00:00 8,0 5,1 29 16 39 21 ZO 1005,9 34 0,0
23.04.2018 04:00:00 8,3 5,4 30 16 36 20 ZO 1006,9 39 0,0
23.04.2018 03:00:00 8,2 4,6 26 14 32 17 ZO 1008,5 50 0,0
23.04.2018 02:00:00 8,5 3,7 26 14 31 17 ZO 1009,2 50 0,0
23.04.2018 01:00:00 7,8 4,9 19 10 21 12 ZO 1010,2 47 0,0
23.04.2018 00:00:00 7,4 6,0 15 8 17 9 ZO 1010,9 15 0,0
22.04.2018 23:00:00 6,5 6,5 16 8 21 11 ZO 1011,4 11 0,1
22.04.2018 22:00:00 4,9 4,9 11 6 13 7 OZO 1012,2 2,9 0,0
22.04.2018 21:00:00 4,6 4,6 10 6 14 8 OZO 1012,9 0,7 0,0
22.04.2018 20:00:00 4,4 4,4 7 4 14 8 Z 1013,2 0,2 0,0
22.04.2018 19:00:00 4,7 4,7 11 6 20 11 Z 1013,6 0,4 0,0
22.04.2018 18:00:00 5,0 4,7 13 7 19 10 ZZO 1014,1 0,8 0,0
22.04.2018 17:00:00 5,3 4,6 11 6 27 15 Z 1014,9 1,9 0,0
22.04.2018 16:00:00 5,3 4,6 23 12 28 15 ZZW 1015,5 8 0,0
22.04.2018 15:00:00 5,7 4,5 16 9 21 11 Z 1015,9 7 0,0
22.04.2018 14:00:00 6,3 4,6 11 6 20 11 Z 1016,3 14 0,0
22.04.2018 13:00:00 5,5 4,6 13 7 21 11 ZZW 1016,8 10 0,0
22.04.2018 12:00:00 5,3 4,3 8 5 14 8 ZZO 1017,2 12 0,0
22.04.2018 11:00:00 5,3 4,4 8 4 12 6 ZZO 1017,3 12 0,0
22.04.2018 10:00:00 5,0 4,6 5 3 9 5 ZO 1017,4 6 0,0
22.04.2018 09:00:00 5,1 5,0 5 3 12 7 W 1017,2 2,1 0,0
22.04.2018 08:00:00 5,1 5,1 6 3 14 8 NW 1017,2 4,2 0,0
22.04.2018 07:00:00 4,7 4,7 10 5 22 12 W 1016,8 1,3 0,0
22.04.2018 06:00:00 5,2 5,2 17 9 27 15 W 1016,7 2,0 0,0
22.04.2018 05:00:00 6,2 5,6 14 8 22 12 W 1016,4 9 0,0
22.04.2018 04:00:00 6,4 5,7 15 8 21 12 W 1016,6 10 0,0
22.04.2018 03:00:00 6,5 5,8 11 6 22 12 W 1016,5 10 0,0
22.04.2018 02:00:00 6,8 5,7 17 9 32 17 W 1016,7 11 0,0
22.04.2018 01:00:00 6,7 5,8 23 12 34 18 W 1016,4 10 0,0
22.04.2018 00:00:00 6,8 5,7 22 12 31 17 W 1016,4 11 0,0
21.04.2018 23:00:00 7,0 5,8 22 12 35 19 W 1016,3 12 0,0
21.04.2018 22:00:00 7,5 5,6 23 12 34 18 W 1016,5 15 0,0
21.04.2018 21:00:00 7,7 5,7 18 10 27 15 W 1017,0 16 0,0
21.04.2018 20:00:00 7,8 5,9 15 8 34 18 WZW 1016,7 15 0,0
21.04.2018 19:00:00 8,5 5,6 24 13 35 19 W 1016,9 19 0,0
21.04.2018 18:00:00 9,3 5,8 24 13 40 22 W 1017,3 17 0,0
21.04.2018 17:00:00 9,5 5,9 27 15 38 20 W 1017,2 17 0,0
21.04.2018 16:00:00 9,4 5,9 25 14 37 20 W 1017,5 16 0,0
21.04.2018 15:00:00 9,9 6,1 25 14 36 20 W 1017,6 17 0,0
21.04.2018 14:00:00 10,1 6,1 21 11 36 19 W 1017,5 22 0,0
21.04.2018 13:00:00 9,7 5,9 27 15 39 21 WNW 1017,7 19 0,0
21.04.2018 12:00:00 9,9 5,9 22 12 42 23 W 1017,5 20 0,0
21.04.2018 11:00:00 9,2 5,7 31 17 40 22 WNW 1017,1 17 0,0
21.04.2018 10:00:00 8,4 5,7 30 16 41 22 W 1016,6 14 0,0

tt = temperatuur
td = dauwpunt
ff = windsnelheid
fx = windstoten
dd = windrichting
ppp = luchtdruk
vv = zicht
rr = neerslag

Weerstations in de omgeving